Time,TemperatureF,DewpointF,PressureIn,WindDirection,WindDirectionDegrees,WindSpeedMPH,WindSpeedGustMPH,Humidity,HourlyPrecipIn,Conditions,Clouds,dailyrainin,SoftwareType,DateUTC
2013-02-22 00:06:00,24.4,15.4,30.17,NE,45,3.7,-999.0,68,-99.99,,,0.00,Acu-Link.com,2013-02-22 05:06:00,
2013-02-22 00:21:00,24.6,15.6,30.17,SW,225,4.7,-999.0,68,-99.99,,,0.00,Acu-Link.com,2013-02-22 05:21:00,
2013-02-22 00:36:00,25.2,16.1,30.18,NNW,337,4.2,-999.0,68,-99.99,,,0.00,Acu-Link.com,2013-02-22 05:36:00,
2013-02-22 00:51:00,25.0,15.6,30.19,NNE,22,2.7,-999.0,67,-99.99,,,0.00,Acu-Link.com,2013-02-22 05:51:00,
2013-02-22 01:07:00,24.6,15.6,30.19,NW,315,3.2,-999.0,68,-99.99,,,0.00,Acu-Link.com,2013-02-22 06:07:00,
2013-02-22 01:22:00,24.3,15.3,30.18,NNW,337,2.7,-999.0,68,-99.99,,,0.00,Acu-Link.com,2013-02-22 06:22:00,
2013-02-22 01:37:00,24.1,15.4,30.18,North,0,2.7,-999.0,69,-99.99,,,0.00,Acu-Link.com,2013-02-22 06:37:00,
2013-02-22 01:53:00,24.3,15.6,30.17,NNE,22,2.2,-999.0,69,-99.99,,,0.00,Acu-Link.com,2013-02-22 06:53:00,
2013-02-22 02:08:00,24.1,15.4,30.18,NE,45,2.2,-999.0,69,-99.99,,,0.00,Acu-Link.com,2013-02-22 07:08:00,
2013-02-22 02:23:00,24.3,15.9,30.18,North,0,0.0,-999.0,70,-99.99,,,0.00,Acu-Link.com,2013-02-22 07:23:00,
2013-02-22 02:38:00,24.3,16.3,30.19,North,0,4.2,-999.0,71,-99.99,,,0.00,Acu-Link.com,2013-02-22 07:38:00,
2013-02-22 02:54:00,24.4,16.4,30.18,North,0,2.2,-999.0,71,-99.99,,,0.00,Acu-Link.com,2013-02-22 07:54:00,
2013-02-22 03:09:00,24.4,16.7,30.18,WSW,247,1.7,-999.0,72,-99.99,,,0.00,Acu-Link.com,2013-02-22 08:09:00,
2013-02-22 03:24:00,24.8,17.1,30.19,NNE,22,4.2,-999.0,72,-99.99,,,0.00,Acu-Link.com,2013-02-22 08:24:00,
2013-02-22 03:39:00,25.0,17.3,30.19,SW,225,2.7,-999.0,72,-99.99,,,0.00,Acu-Link.com,2013-02-22 08:39:00,
2013-02-22 03:54:00,25.0,17.3,30.20,North,0,3.2,-999.0,72,-99.99,,,0.00,Acu-Link.com,2013-02-22 08:54:00,
2013-02-22 04:19:00,24.8,17.1,30.21,NNE,22,3.7,-999.0,72,-99.99,,,0.00,Acu-Link.com,2013-02-22 09:19:00,
2013-02-22 04:35:00,24.6,17.2,30.23,NE,45,2.7,-999.0,73,-99.99,,,0.00,Acu-Link.com,2013-02-22 09:35:00,
2013-02-22 04:50:00,24.1,17.3,30.25,NNE,22,0.0,-999.0,75,-99.99,,,0.00,Acu-Link.com,2013-02-22 09:50:00,
2013-02-22 05:05:00,23.0,17.2,30.26,West,270,1.7,-999.0,78,-99.99,,,0.00,Acu-Link.com,2013-02-22 10:05:00,
2013-02-22 05:20:00,22.1,16.9,30.26,NNW,337,1.1,-999.0,80,-99.99,,,0.00,Acu-Link.com,2013-02-22 10:20:00,
2013-02-22 05:35:00,21.9,17.3,30.27,West,270,0.0,-999.0,82,-99.99,,,0.00,Acu-Link.com,2013-02-22 10:35:00,
2013-02-22 05:51:00,21.4,16.8,30.28,WSW,247,0.0,-999.0,82,-99.99,,,0.00,Acu-Link.com,2013-02-22 10:51:00,
2013-02-22 06:06:00,21.0,16.7,30.29,West,270,1.7,-999.0,83,-99.99,,,0.00,Acu-Link.com,2013-02-22 11:06:00,
2013-02-22 06:21:00,20.7,16.4,30.30,WSW,247,0.0,-999.0,83,-99.99,,,0.00,Acu-Link.com,2013-02-22 11:21:00,
2013-02-22 06:36:00,20.5,16.7,30.30,NNW,337,0.0,-999.0,85,-99.99,,,0.00,Acu-Link.com,2013-02-22 11:36:00,
2013-02-22 06:52:00,20.3,17.1,30.31,NW,315,0.0,-999.0,87,-99.99,,,0.00,Acu-Link.com,2013-02-22 11:52:00,
2013-02-22 07:07:00,22.5,18.4,30.31,South,180,0.0,-999.0,84,-99.99,,,0.00,Acu-Link.com,2013-02-22 12:07:00,
2013-02-22 07:22:00,25.9,19.7,30.32,ENE,67,0.0,-999.0,77,-99.99,,,0.00,Acu-Link.com,2013-02-22 12:22:00,
2013-02-22 07:37:00,29.3,20.8,30.32,West,270,0.0,-999.0,70,-99.99,,,0.00,Acu-Link.com,2013-02-22 12:37:00,
2013-02-22 07:53:00,29.8,19.9,30.34,West,270,1.1,-999.0,66,-99.99,,,0.00,Acu-Link.com,2013-02-22 12:53:00,
2013-02-22 08:08:00,29.7,19.8,30.34,ESE,112,0.0,-999.0,66,-99.99,,,0.00,Acu-Link.com,2013-02-22 13:08:00,
2013-02-22 08:23:00,30.0,19.7,30.34,NNE,22,2.7,-999.0,65,-99.99,,,0.00,Acu-Link.com,2013-02-22 13:23:00,
2013-02-22 08:38:00,30.9,20.2,30.33,NE,45,1.7,-999.0,64,-99.99,,,0.00,Acu-Link.com,2013-02-22 13:38:00,
2013-02-22 08:53:00,32.9,20.9,30.33,SSW,202,2.7,-999.0,61,-99.99,,,0.00,Acu-Link.com,2013-02-22 13:53:00,
2013-02-22 09:09:00,34.9,20.8,30.31,North,0,2.2,-999.0,56,-99.99,,,0.00,Acu-Link.com,2013-02-22 14:09:00,
2013-02-22 09:24:00,36.5,21.5,30.32,North,0,2.2,-999.0,54,-99.99,,,0.00,Acu-Link.com,2013-02-22 14:24:00,
2013-02-22 09:39:00,35.8,21.2,30.32,NNE,22,3.2,-999.0,55,-99.99,,,0.00,Acu-Link.com,2013-02-22 14:39:00,
2013-02-22 09:54:00,36.3,21.3,30.32,NNW,337,5.8,-999.0,54,-99.99,,,0.00,Acu-Link.com,2013-02-22 14:54:00,
2013-02-22 10:10:00,37.4,21.4,30.31,ESE,112,2.7,-999.0,52,-99.99,,,0.00,Acu-Link.com,2013-02-22 15:10:00,
2013-02-22 10:25:00,36.3,21.3,30.31,NNE,22,2.7,-999.0,54,-99.99,,,0.00,Acu-Link.com,2013-02-22 15:25:00,
2013-02-22 10:40:00,38.3,21.8,30.30,NE,45,4.7,-999.0,51,-99.99,,,0.00,Acu-Link.com,2013-02-22 15:40:00,
2013-02-22 10:56:00,38.3,22.2,30.29,North,0,3.7,-999.0,52,-99.99,,,0.00,Acu-Link.com,2013-02-22 15:56:00,
2013-02-22 11:11:00,37.0,21.5,30.29,North,0,2.7,-999.0,53,-99.99,,,0.00,Acu-Link.com,2013-02-22 16:11:00,
2013-02-22 11:26:00,39.2,22.6,30.29,ENE,67,2.7,-999.0,51,-99.99,,,0.00,Acu-Link.com,2013-02-22 16:26:00,
2013-02-22 11:42:00,38.8,22.2,30.29,North,0,3.7,-999.0,51,-99.99,,,0.00,Acu-Link.com,2013-02-22 16:42:00,
2013-02-22 11:57:00,40.1,23.0,30.29,NNW,337,2.2,-999.0,50,-99.99,,,0.00,Acu-Link.com,2013-02-22 16:57:00,
2013-02-22 12:12:00,38.8,23.6,30.29,ESE,112,2.7,-999.0,54,-99.99,,,0.00,Acu-Link.com,2013-02-22 17:12:00,
2013-02-22 12:27:00,40.6,24.4,30.28,SSW,202,1.1,-999.0,52,-99.99,,,0.00,Acu-Link.com,2013-02-22 17:27:00,
2013-02-22 12:43:00,38.7,24.4,30.30,SSW,202,1.7,-999.0,56,-99.99,,,0.00,Acu-Link.com,2013-02-22 17:43:00,
2013-02-22 12:58:00,40.1,25.7,30.29,South,180,3.7,-999.0,56,-99.99,,,0.00,Acu-Link.com,2013-02-22 17:58:00,
2013-02-22 13:13:00,38.5,25.0,30.28,SW,225,4.2,-999.0,58,-99.99,,,0.00,Acu-Link.com,2013-02-22 18:13:00,
2013-02-22 13:29:00,39.6,25.6,30.28,SSW,202,3.7,-999.0,57,-99.99,,,0.00,Acu-Link.com,2013-02-22 18:29:00,
2013-02-22 13:44:00,39.6,25.6,30.28,ESE,112,1.7,-999.0,57,-99.99,,,0.00,Acu-Link.com,2013-02-22 18:44:00,
2013-02-22 13:59:00,39.0,25.9,30.27,SE,135,3.7,-999.0,59,-99.99,,,0.00,Acu-Link.com,2013-02-22 18:59:00,
2013-02-22 14:14:00,38.3,25.6,30.26,ESE,112,4.2,-999.0,60,-99.99,,,0.00,Acu-Link.com,2013-02-22 19:14:00,
2013-02-22 14:29:00,37.8,26.7,30.26,South,180,0.0,-999.0,64,-99.99,,,0.00,Acu-Link.com,2013-02-22 19:29:00,
2013-02-22 14:44:00,37.9,26.8,30.25,SSE,157,2.7,-999.0,64,-99.99,,,0.00,Acu-Link.com,2013-02-22 19:44:00,
2013-02-22 15:00:00,37.2,26.2,30.26,SSE,157,4.2,-999.0,64,-99.99,,,0.00,Acu-Link.com,2013-02-22 20:00:00,
2013-02-22 15:15:00,38.5,26.6,30.26,SE,135,2.7,-999.0,62,-99.99,,,0.00,Acu-Link.com,2013-02-22 20:15:00,
2013-02-22 15:30:00,38.5,27.0,30.27,NE,45,3.2,-999.0,63,-99.99,,,0.00,Acu-Link.com,2013-02-22 20:30:00,
2013-02-22 15:45:00,37.6,26.5,30.26,ESE,112,2.7,-999.0,64,-99.99,,,0.00,Acu-Link.com,2013-02-22 20:45:00,
2013-02-22 16:00:00,38.1,27.0,30.26,ESE,112,3.7,-999.0,64,-99.99,,,0.00,Acu-Link.com,2013-02-22 21:00:00,
2013-02-22 16:15:00,37.0,26.7,30.25,South,180,1.1,-999.0,66,-99.99,,,0.00,Acu-Link.com,2013-02-22 21:15:00,
2013-02-22 16:30:00,36.7,26.8,30.27,ESE,112,2.7,-999.0,67,-99.99,,,0.00,Acu-Link.com,2013-02-22 21:30:00,
2013-02-22 16:46:00,36.5,27.3,30.27,South,180,2.7,-999.0,69,-99.99,,,0.00,Acu-Link.com,2013-02-22 21:46:00,
2013-02-22 17:01:00,36.0,26.8,30.26,SSW,202,2.2,-999.0,69,-99.99,,,0.00,Acu-Link.com,2013-02-22 22:01:00,
2013-02-22 17:16:00,35.8,27.0,30.27,SSE,157,3.2,-999.0,70,-99.99,,,0.00,Acu-Link.com,2013-02-22 22:16:00,
2013-02-22 17:31:00,35.6,26.8,30.27,South,180,1.7,-999.0,70,-99.99,,,0.00,Acu-Link.com,2013-02-22 22:31:00,
2013-02-22 17:47:00,35.4,26.9,30.28,South,180,2.2,-999.0,71,-99.99,,,0.00,Acu-Link.com,2013-02-22 22:47:00,
2013-02-22 18:02:00,35.1,27.3,30.28,SW,225,1.7,-999.0,73,-99.99,,,0.00,Acu-Link.com,2013-02-22 23:02:00,
2013-02-22 18:17:00,34.7,27.3,30.28,SSW,202,0.0,-999.0,74,-99.99,,,0.00,Acu-Link.com,2013-02-22 23:17:00,
2013-02-22 18:33:00,34.5,27.4,30.27,SW,225,0.0,-999.0,75,-99.99,,,0.00,Acu-Link.com,2013-02-22 23:33:00,
2013-02-22 18:48:00,34.3,27.5,30.27,WSW,247,1.7,-999.0,76,-99.99,,,0.00,Acu-Link.com,2013-02-22 23:48:00,
2013-02-22 19:03:00,34.5,28.0,30.28,SW,225,1.1,-999.0,77,-99.99,,,0.00,Acu-Link.com,2013-02-23 00:03:00,
2013-02-22 19:19:00,34.5,28.0,30.27,SSW,202,0.0,-999.0,77,-99.99,,,0.00,Acu-Link.com,2013-02-23 00:19:00,
2013-02-22 19:34:00,34.5,28.0,30.27,East,90,0.0,-999.0,77,-99.99,,,0.00,Acu-Link.com,2013-02-23 00:34:00,
2013-02-22 19:49:00,34.5,28.0,30.27,South,180,0.0,-999.0,77,-99.99,,,0.00,Acu-Link.com,2013-02-23 00:49:00,
2013-02-22 20:05:00,34.7,28.2,30.25,ESE,112,1.1,-999.0,77,-99.99,,,0.00,Acu-Link.com,2013-02-23 01:05:00,
2013-02-22 20:20:00,35.2,27.8,30.26,NE,45,0.0,-999.0,74,-99.99,,,0.00,Acu-Link.com,2013-02-23 01:20:00,
2013-02-22 20:35:00,35.1,27.3,30.27,South,180,0.0,-999.0,73,-99.99,,,0.00,Acu-Link.com,2013-02-23 01:35:00,
2013-02-22 20:50:00,35.1,27.3,30.27,East,90,1.7,-999.0,73,-99.99,,,0.00,Acu-Link.com,2013-02-23 01:50:00,
2013-02-22 21:06:00,35.6,27.8,30.26,South,180,3.2,-999.0,73,-99.99,,,0.00,Acu-Link.com,2013-02-23 02:06:00,
2013-02-22 21:21:00,35.6,27.5,30.26,NE,45,0.0,-999.0,72,-99.99,,,0.00,Acu-Link.com,2013-02-23 02:21:00,
2013-02-22 21:36:00,35.6,27.1,30.26,SE,135,4.7,-999.0,71,-99.99,,,0.00,Acu-Link.com,2013-02-23 02:36:00,
2013-02-22 21:52:00,35.6,27.5,30.27,ESE,112,0.0,-999.0,72,-99.99,,,0.00,Acu-Link.com,2013-02-23 02:52:00,
2013-02-22 22:07:00,35.6,26.8,30.26,South,180,2.7,-999.0,70,-99.99,,,0.00,Acu-Link.com,2013-02-23 03:07:00,
2013-02-22 22:22:00,35.4,27.3,30.27,ENE,67,3.7,-999.0,72,-99.99,,,0.00,Acu-Link.com,2013-02-23 03:22:00,
2013-02-22 22:38:00,35.4,26.9,30.26,SSW,202,2.7,-999.0,71,-99.99,,,0.00,Acu-Link.com,2013-02-23 03:38:00,
2013-02-22 22:53:00,35.4,26.9,30.26,SSE,157,2.2,-999.0,71,-99.99,,,0.00,Acu-Link.com,2013-02-23 03:53:00,
2013-02-22 23:08:00,35.4,27.6,30.26,East,90,4.2,-999.0,73,-99.99,,,0.00,Acu-Link.com,2013-02-23 04:08:00,
2013-02-22 23:24:00,35.4,27.6,30.25,SE,135,0.0,-999.0,73,-99.99,,,0.00,Acu-Link.com,2013-02-23 04:24:00,
2013-02-22 23:39:00,35.4,27.6,30.24,SSW,202,1.7,-999.0,73,-99.99,,,0.00,Acu-Link.com,2013-02-23 04:39:00,
2013-02-22 23:54:00,35.2,27.8,30.24,NE,45,3.2,-999.0,74,-99.99,,,0.00,Acu-Link.com,2013-02-23 04:54:00,